Home > Time Zones > World Clock > Weather > Norway > Gran > Past weeks

Flag for Norway Weather past 2 weeks in Gran, Norway

Now
61 °F

Passing clouds.


Feels Like: 61 °F
Forecast: 39 / 56 °F
Wind: 9 mph from South

Location: Oslo Gardermoen Airport

Current Time: Sep 17, 2014 at 7:38:29 PM

Latest Report: Sep 17, 2014 at 6:50 PM


Visibility: N/A

Pressure: 30.21 "Hg

Humidity: 59%

Dew point: 46 °F

Location of GranLocation

Historic Weather in Gran — Graph

°F

Gran temperature yesterday

Maximum temperature yesterday: 63 °F (at 3:20 PM)
Minimum temperature yesterday: 43 °F (at 5:50 AM)
Average temperature yesterday: 53 °F

Past Weeks' High & Low Weather Summary

 TemperatureHumidityPressure
High70 °F (Sep 3, 2:50 PM)100% (Sep 3, 1:20 AM)30.48 "Hg (Sep 3, 1:20 AM)
Low39 °F (Sep 15, 7:20 AM)43% (Sep 5, 5:20 PM)29.74 "Hg (Sep 9, 4:20 AM)
Average56 °F79%30.19 "Hg
* Reported Sep 2 5:20 PM — Sep 17 5:50 PM, Gran, Weather by CustomWeather, © 2014

Note: Actual official high and low records may vary slightly from our data, if they occured in-between our weather recording intervals... More about our weather records

Advertising

Gran weather history for previous 24 hours

 ConditionsComfort  
Time TempWeatherWind HumidityBarometerVisibility
5:50 PM
Sep 17
63 °FPassing clouds.3 mph49%30.21 "HgN/A
5:20 PM63 °FMild.5 mph49%30.21 "HgN/A
4:50 PM63 °FScattered clouds.2 mph49%30.21 "HgN/A
4:20 PM64 °FScattered clouds.6 mph49%30.21 "HgN/A
3:50 PM64 °FScattered clouds.3 mph49%30.24 "HgN/A
3:20 PM64 °FPassing clouds.5 mph52%30.24 "HgN/A
2:50 PM63 °FScattered clouds.7 mph56%30.24 "HgN/A
2:20 PM63 °FScattered clouds.5 mph59%30.24 "HgN/A
1:50 PM64 °FBroken clouds.2 mph60%30.27 "HgN/A
1:20 PM63 °FScattered clouds.1 mph64%30.27 "HgN/A
12:50 PM61 °FScattered clouds.3 mph63%30.27 "HgN/A
12:20 PM61 °FPassing clouds.2 mph68%30.30 "HgN/A
11:50 AM61 °FScattered clouds.3 mph68%30.30 "HgN/A
11:20 AM57 °FBroken clouds.1 mph77%30.30 "HgN/A
10:50 AM55 °FPartly sunny.2 mph82%30.30 "HgN/A
10:20 AM54 °FPartly sunny.3 mph88%30.30 "HgN/A
9:50 AM52 °FPartly sunny.2 mph94%30.30 "HgN/A
9:20 AM52 °FPartly sunny.No wind88%30.30 "HgN/A
8:50 AM50 °FBroken clouds.2 mph94%30.30 "HgN/A
8:20 AM48 °FSleet. Broken clouds.No wind100%30.30 "HgN/A
7:50 AM48 °FSleet. Fog.No wind94%30.30 "HgN/A
7:20 AM48 °FSleet. Overcast.No wind94%30.30 "HgN/A
6:50 AM48 °FSleet. Partly cloudy.1 mph94%30.30 "HgN/A
6:20 AM48 °FSleet. Passing clouds.2 mph94%30.30 "HgN/A
5:50 AM50 °FPassing clouds.5 mph88%30.30 "HgN/A
5:20 AM50 °FPassing clouds.3 mph88%30.30 "HgN/A
4:50 AM50 °FPassing clouds.No wind88%30.30 "HgN/A
4:20 AM50 °FPassing clouds.3 mph88%30.30 "HgN/A
3:50 AM50 °FPassing clouds.3 mph88%30.30 "HgN/A
3:20 AM50 °FPassing clouds.3 mph88%30.33 "HgN/A
2:50 AM50 °FPassing clouds.3 mph88%30.30 "HgN/A
2:20 AM50 °FPassing clouds.3 mph88%30.33 "HgN/A
1:50 AM50 °FOvercast.2 mph88%30.33 "HgN/A
1:20 AM50 °FOvercast.3 mph88%30.33 "HgN/A
12:50 AM48 °FPassing clouds.2 mph94%30.33 "HgN/A
12:20 AM48 °FPassing clouds.3 mph87%30.33 "HgN/A
11:50 PM
Sep 16
46 °FClear.5 mph93%30.33 "Hg10 mi
11:20 PM48 °FClear.5 mph87%30.33 "Hg10 mi
10:50 PM50 °FClear.5 mph88%30.33 "Hg10 mi
10:20 PM50 °FClear.6 mph88%30.33 "Hg10 mi
9:50 PM50 °FClear.5 mph94%30.33 "Hg10 mi
9:20 PM52 °FClear.5 mph88%30.33 "Hg10 mi
8:50 PM54 °FClear.2 mph82%30.33 "Hg10 mi
8:20 PM55 °FSunny.1 mph82%30.33 "Hg10 mi
7:50 PM57 °FPassing clouds.2 mph72%30.30 "HgN/A
7:20 PM59 °FPassing clouds.2 mph72%30.30 "HgN/A
Weather by CustomWeather, © 2014

See weather overviewHow to use our weather pages